This demonstration page uses our WeatherBlox Daily Observations layout. Learn more.

38.89511, -77.03637

Hourly Observations for August 5, 2020

Temp ( °F °C ) Dew Point ( °F °C ) Humidity (%) Winds ( mph kmh ) Pressure ( in mb ) Visibility ( mi km ) Precip ( " mm )
12:52 am 00:52 Mostly Cloudy 75 23.9 71 21.7 88 88 SW 3 6 29.97 1015 10 16.0934 0 0
1:52 am 01:52 Partly Cloudy 74 23.3 71 21.7 91 91 NNW 5 7 29.97 1015 10 16.0934 0 0
2:52 am 02:52 Partly Cloudy 75 23.9 66 18.9 74 74 NW 6 9 29.97 1015 10 16.0934 0 0
3:52 am 03:52 Mostly Clear 73 22.8 69 20.6 87 87 Calm 29.97 1015 10 16.0934 0 0
4:52 am 04:52 Mostly Clear 73 22.8 68 20 84 84 Calm 29.99 1016 10 16.0934 0 0
5:52 am 05:52 Mostly Clear 71 21.7 66 18.9 84 84 NNW 5 7 30 1016 10 16.0934 0 0
6:52 am 06:52 Mostly Sunny 71 21.7 67 19.4 87 87 NNW 6 9 30.02 1017 10 16.0934 0 0
7:52 am 07:52 Mostly Sunny 75 23.9 66 18.9 74 74 NNW 5 7 30.04 1017 10 16.0934 0 0
8:52 am 08:52 Mostly Sunny 77 25 65 18.3 66 66 N 7 11 30.07 1018 10 16.0934 0 0
9:52 am 09:52 Mostly Sunny 80 26.7 66 18.9 62 62 N 5 7 30.07 1018 10 16.0934 0 0
10:52 am 10:52 Mostly Sunny 82 27.8 65 18.3 56 56 ENE 6 9 30.08 1019 10 16.0934 0 0
11:52 am 11:52 Mostly Sunny 84 28.9 66 18.9 55 55 NNW 8 13 30.09 1019 10 16.0934 0 0
12:52 pm 12:52 Mostly Sunny 85 29.4 64 17.8 50 50 N 7 11 30.07 1018 10 16.0934 0 0
1:52 pm 13:52 Mostly Sunny 87 30.6 64 17.8 46 46 NE 7 11 30.06 1018 10 16.0934 0 0
2:52 pm 14:52 Partly Cloudy 85 29.4 64 17.8 50 50 NNE 3 6 30.05 1018 10 16.0934 0 0
3:52 pm 15:52 Mostly Cloudy 87 30.6 64 17.8 46 46 Calm 30.04 1017 10 16.0934 0 0
4:52 pm 16:52 Mostly Cloudy 87 30.6 63 17.2 45 45 Calm 30.04 1017 10 16.0934 0 0
5:52 pm 17:52 Mostly Cloudy 86 30 65 18.3 49 49 S 6 9 30.02 1017 10 16.0934 0 0
6:52 pm 18:52 Mostly Cloudy 85 29.4 67 19.4 55 55 SE 3 6 30.02 1017 10 16.0934 0 0
7:52 pm 19:52 Mostly Cloudy 83 28.3 70 21.1 65 65 ESE 10 17 30.03 1017 10 16.0934 0 0
8:52 pm 20:52 Mostly Cloudy 81 27.2 69 20.6 67 67 SE 7 11 30.04 1017 10 16.0934 0 0
9:52 pm 21:52 Mostly Cloudy 80 26.7 69 20.6 69 69 E 3 6 30.06 1018 10 16.0934 0 0
10:52 pm 22:52 Cloudy 79 26.1 69 20.6 72 72 SSE 5 7 30.06 1018 10 16.0934 0 0
11:52 pm 23:52 Cloudy 80 26.7 67 19.4 64 64 Calm 30.06 1018 10 16.0934 0 0

Powered by AerisWeather